Showing default

COSMOS 2215, 22186

Orbit data source: Space-Track

COSMOS 2215, 22186 is a payload satellite owned by VKS (CIS) in LEO that was launched on Tue, 20 Oct 1992 UTC via a TSIKLON-3 launch vehicle from the Plesetsk Missile And Space Complex (PKMTR). Payload-class satellites include a variety of spacecraft equipped with specific instruments for various scientific and technological missions. These include communications satellites like Starlink; space stations such as the ISS; scientific satellites like the Hubble; Earth observation satellites from companies like Planet Labs, Umbra, and HawkEye 360; GPS; miniature CubeSats for education and research; and military/defense satellites.

Loading next visibility...
Identifier
22186, 1992-068E
Orbit
LEO
Country
Flag of CISCIS
Related business
Manufacturer
NPO PM
Mission
Defense Communications
Bus & Motor
STRELA-3, Unknown motor
Mass
225 kg wet, 225 kg dry
Launch date (UTC)
1992-10-20 (33 years ago)
Launch vehicle
TSIKLON-3
Launch site
Plesetsk Missile And Space Complex (PKMTR)
Object type
Payload
Rocket body
Debris
Shape & HBR
Cyl, 0.8 m
Radar Cross Section
1.257 m², Medium (>0.1 m² and < 1m²)

Expand to show TLE details & history
Last TLE update: 14 hours ago

TLE from 14 hours ago
0 COSMOS 2215
1 22186U 92068E   25311.06673877  .00000046  00000-0  20000-3 0  9995
2 22186  82.5994 153.6844 0012236 323.0954  36.9293 12.60955118520871
Epoch: 2025-11-07T01:36Z
TLE epoch observation values (Epoch: 2025-11-07T01:36:06.229Z)
Latitude
-0.00007°
Longitude
83.1424°
Altitude
1,414.109 km
Speed
7.157 km/s
True Right ascension
10h 14m 44s
True Declination
0° 00' 00"
Sunlit
Object was in daylight at epoch
Visualization orbit readout
Latitude
Unknown
Longitude
Unknown
Altitude
Unknown
Speed
Unknown
Apparent Right ascension
Unknown
Apparent Declination
Unknown
Sunlit
N/A
Visualization observer readout
Local Sidereal Time
11:59:21
Azimuth
Unknown
Elevation
Unknown
Doppler factor
Unknown
Orbital elements
Apogee altitude
1,425.864 km
Perigee altitude
1,406.789 km
Semi-major axis
7,794.463 km
Eccentricity
0.00122
Inclination
82.5994°
RAAN
153.6844°
Arg. of periapsis
323.0954°
True anomaly
37.01365°
Mean anomaly
36.9293°
Eccentric anomaly
36.97146°
Mean motion
3.15402 °/min
Orbital period
114.14 mins
BSTAR
0.0002
Loading maneuver chart data...
Computing Atmospheric mass density...
Loading historical data...
Loading historical data...
Loading historical data...
Loading historical data...
Loading historical data...
Loading historical data...
Loading historical data...

Documentation

Showing up to 5 results
|